Regional Weather Roundup
Issued by NWS

Home | Current Version | Previous Version | Text Only | Print | Product List | Glossary Off
Versions: 1 2 3 4 5 6 7 8 9 10 11 12 13 14 15 16 17 18 19 20 21 22 23 24 25 26 27 28 29 30 31 32 33 34 35 36 37 38 39 40 41 42 43 44 45 46 47 48 49 50

931
ASUS44 KJAN 290510
RWRMS

MISSISSIPPI HOURLY WEATHER ROUNDUP
NATIONAL WEATHER SERVICE JACKSON MS
1200 AM CDT TUE JUL 29 2014

NOTE: "FAIR: INDICATES FEW OR NO CLOUDS BELOW 12,000 FEET WITH NO
SIGNIFICANT WEATHER AND/OR OBSTRUCTIONS TO VISIBILITY.

MSZ001>002-007>008-010>013-018>021-025>028-034>036-290600-
NORTHWEST MISSISSIPPI

CITY           SKY/WX    TMP DP  RH WIND       PRES   REMARKS
CLARKSDALE     FAIR      70  68  94 CALM      30.06F
CLEVELAND      FAIR      70  67  90 CALM      30.05S
GREENWOOD      CLEAR     69  66  90 CALM      30.05F
GREENVILLE     CLEAR     69  65  86 CALM      30.05S
GRENADA        FAIR      68  64  88 CALM      30.06S
OLIVE BRANCH   CLOUDY    73  70  88 CALM      30.07R
OXFORD         FAIR      66  64  94 CALM      30.08F
TUNICA         CLEAR     70  68  94 CALM      30.06S
$$

MSZ003>006-009-014>017-022>024-029>033-037>039-290600-
NORTHEAST MISSISSIPPI

CITY           SKY/WX    TMP DP  RH WIND       PRES   REMARKS
BELMONT        FAIR      69  64  85 CALM      30.06S
COLUMBUS AFB   CLEAR     70  64  82 NW2       30.04F
CORINTH        FAIR      66  64  94 CALM      30.06R
GOLDN TRIANGLE CLEAR     70  63  78 NW5       30.05S
STARKVILLE     FAIR      68  64  88 CALM      30.05S
TUPELO         CLEAR     71  64  78 CALM      30.05S
$$

MSZ040-058-290600-
CENTRAL MISSISSIPPI

CITY           SKY/WX    TMP DP  RH WIND       PRES   REMARKS
JACKSON INTL   CLEAR     73  66  78 N3        30.05S
JACKSON HAWKNS CLEAR     75  64  68 N3        30.06S
MERIDIAN KEY   CLEAR     70  65  84 NW3       30.03F
MERIDIAN NAS   CLEAR     71  65  81 NW3       30.03F
RAYMOND        FAIR      70  64  83 CALM      30.05F
VICKSBURG      CLEAR     74  66  76 NE8       30.05S
$$

MSZ059>079-290600-
SOUTH MISSISSIPPI

CITY           SKY/WX    TMP DP  RH WIND       PRES   REMARKS
BROOKHAVEN     FAIR      73  70  88 N3        30.07S
COLUMBIA       FAIR      77  70  78 CALM      30.02S
HATTIESBURG    CLEAR     79  68  69 N7        30.02F
MCCOMB         MOCLDY    76  71  85 N5        30.04S
NATCHEZ        PTCLDY    73  72  94 CALM      30.06R
PINE BELT      CLEAR     75  64  69 N7        30.04F
$$

MSZ080>082-290600-
COASTAL MISSISSIPPI

CITY           SKY/WX    TMP DP  RH WIND       PRES   REMARKS
BILOXI         PTCLDY    83  77  83 VRB2      29.99F HX  92
PASCAGOULA     PTCLDY    81  75  82 NW6       29.99S
GULFPORT       PTCLDY    84  76  76 W5        29.99S HX  93
$$



USA.gov is the U.S. government's official web portal to all federal, state and local government web resources and services.